FW9447 Weather Reports


Display with metric or nautical units.
time (UTC)temp
F
wind
direction
speed
MPH
gust
MPH
rain 1hr
in
rain 24hr
in
rain mn
in
humidity
%
barometer
mb
20260504150103 39 39 5.0 12.0 0.02 0.48 0.24 98 997.1
20260504090107 36 295 14.0 32.0 0.03 0.33 0.09 99 983.5
20260504081602 36 298 14.0 29.0 0.02 0.31 0.07 99 981.2
20260504044603 39 356 4.0 10.0 0.01 0.26 0.02 97 975.5
20260504043057 39 325 4.0 10.0 0.01 0.25 0.01 97 975.4
20260504041556 39 327 4.0 8.0 0.01 0.25 0.01 96 975.5
20260504040107 39 63 1.0 4.0 0.01 0.25 0.01 95 975.7
20260504034612 39 91 4.0 13.0 0.01 0.25 0.01 95 975.9
20260504033054 40 90 2.0 19.0 0.01 0.24 0.00 94 976.0
20260504031550 40 74 1.0 10.0 0.01 0.24 0.00 94 976.3
20260504030120 40 139 10.0 24.0 0.01 0.24 0.00 94 976.6
20260504024555 41 147 11.0 25.0 0.02 0.24 0.24 94 977.0
20260504023055 41 150 10.0 25.0 0.01 0.23 0.23 94 977.5
20260504021554 41 89 11.0 22.0 0.01 0.23 0.23 95 978.0
20260504020107 41 104 9.0 21.0 0.02 0.23 0.23 94 978.2
20260504014556 41 85 9.0 27.0 0.01 0.22 0.22 94 978.5
20260504013056 41 170 11.0 28.0 0.02 0.22 0.22 94 978.7
20260504011553 41 105 7.0 24.0 0.02 0.22 0.22 94 979.9
20260504010052 41 130 9.0 24.0 0.02 0.21 0.21 94 980.5
20260504004552 41 139 7.0 25.0 0.02 0.21 0.21 94 981.1
20260504003048 41 118 11.0 29.0 0.02 0.20 0.20 94 981.5
20260504001606 42 39 10.0 26.0 0.02 0.20 0.20 94 982.9
20260504000100 41 62 9.0 25.0 0.02 0.19 0.19 94 983.1
20260503234555 41 108 8.0 32.0 0.03 0.19 0.19 94 983.8
20260503233100 41 109 9.0 29.0 0.02 0.18 0.18 94 984.4
20260503231555 40 236 9.0 25.0 0.03 0.18 0.18 93 985.8
20260503230053 40 106 7.0 29.0 0.03 0.17 0.17 93 986.9
20260503224554 40 100 10.0 31.0 0.02 0.16 0.16 93 987.8
20260503223053 40 147 8.0 22.0 0.03 0.16 0.16 92 988.6
20260503221554 40 86 8.0 18.0 0.03 0.15 0.15 92 990.2
20260503220055 41 135 5.0 15.0 0.02 0.14 0.14 93 991.3
20260503214601 41 128 7.0 28.0 0.03 0.14 0.14 93 992.4
20260503213058 42 125 5.0 15.0 0.03 0.13 0.13 92 993.3
20260503211556 43 206 4.0 16.0 0.03 0.12 0.12 92 993.9
20260503210054 43 56 4.0 18.0 0.04 0.12 0.12 90 994.4
20260503204604 44 82 5.0 18.0 0.04 0.11 0.11 91 994.4
20260503203058 44 2 3.0 15.0 0.04 0.10 0.10 91 995.2
20260503201553 43 95 6.0 16.0 0.04 0.09 0.09 91 996.0
20260503200056 43 72 3.0 15.0 0.04 0.08 0.08 90 996.5
20260503194555 43 108 3.0 20.0 0.05 0.07 0.07 88 997.4
20260503193109 43 11 5.0 19.0 0.05 0.06 0.06 88 998.0
20260503191559 43 39 4.0 13.0 0.05 0.05 0.05 86 998.0
20260503190106 43 335 5.0 19.0 0.04 0.04 0.04 86 998.9
20260503184553 44 108 5.0 13.0 0.02 0.02 0.02 85 1000.6
20260503183100 45 112 2.0 7.0 0.01 0.01 0.01 80 1001.9
20260503181555 46 86 4.0 16.0 0.00 0.00 0.00 77 1002.5
20260503180059 47 35 8.0 14.0 0.00 0.00 0.00 75 1003.8
20260503174554 48 104 7.0 17.0 0.00 0.00 0.00 72 1004.7
20260503173112 49 154 7.0 16.0 0.00 0.00 0.00 71 1005.4
20260503171555 48 132 6.0 17.0 0.00 0.00 0.00 71 1005.4